Regional Weather Roundup
Issued by NWS Jackson, KY

Home | Current Version | Previous Version | Text Only | Print | Product List | Glossary On
Versions: 1 2 3 4 5 6 7 8 9 10 11 12 13 14 15 16 17 18 19 20 21 22 23 24 25 26 27 28 29 30 31 32 33 34 35 36 37 38 39 40 41 42 43 44 45 46 47 48 49 50
000
ASUS43 KJKL 022310
RWRJKL

EAST KENTUCKY HOURLY WEATHER ROUNDUP
NATIONAL WEATHER SERVICE JACKSON KY
700 PM EDT WED SEP 02 2015

NOTE: "FAIR" INDICATES FEW OR NO CLOUDS BELOW 12,000 FEET WITH
NO SIGNIFICANT WEATHER AND/OR OBSTRUCTIONS TO VISIBILITY.

* THESE REPORTS ARE NOT UNDER NWS QUALITY CONTROL AND MAY NOT
  REPORT WEATHER SUCH AS PRECIPITATION AND FOG.

KYZ079-080-083-085-087-088-110-112-115-119-120-030000
...EASTERN KENTUCKY...

CITY           SKY/WX    TMP DP  RH WIND       PRES   REMARKS
JACKSON        SUNNY     83  66  56 CALM      30.06S
LONDON         MOSUNNY   88  60  38 NW5       30.05F
SOMERSET*      MOSUNNY   86  61  42 NW3       30.05S
MONTICELLO*    MOSUNNY   88  68  51 CALM      30.07S HX  91
WILLIAMSBURG*  SUNNY     82  64  54 CALM      30.05S
MIDDLESBORO*   MOSUNNY   83  70  64 W3        30.05S
HARLAN APT*      N/A     82  63  51 MISG      30.06S
HAZARD APT*    CLEAR     84  66  54 CALM      30.05F
BLACK MTN*       N/A     70  63  78 N3          N/A
PIKEVILLE APT* MOSUNNY   81  66  61 N10       30.07R
BIG SANDY*     CLOUDY    78  67  69 W3        30.06R
MOREHEAD APT*  PTCLDY    77  68  73 SE5       30.06F
$$

KYZ035-036-041-042-044-050-067-078-099-030000
...CENTRAL KENTUCKY...

CITY           SKY/WX    TMP DP  RH WIND       PRES   REMARKS
MT STERLING*   SUNNY     86  68  54 NE3       30.05F
FLEMING/MASON* SUNNY     84  70  61 CALM      30.04S
DANVILLE*      MOSUNNY   86  64  48 NW3       30.05F
RICHMOND*      SUNNY     86  63  45 W3        30.04S
LEXINGTON      SUNNY     87  66  49 W5        30.03F
FRANKFORT      SUNNY     87  65  47 NW5       30.02F
$$

KYZ091>093-OHZ055-061-077-WVZ005-015-034-035-042-030000
...SOUTHERN OHIO/WEST VIRGINIA...

CITY           SKY/WX    TMP DP  RH WIND       PRES   REMARKS
COVINGTON      MOSUNNY   87  67  51 W8        30.02S HX  90
COLUMBUS       PTSUNNY   74  68  81 CALM      30.01F
DAYTON         MOSUNNY   82  68  62 S8        30.02F
WILMINGTON     PTSUNNY   76  68  76 CALM      30.03S
HUNTINGTON     MOSUNNY   83  67  58 W3        30.03S
CHARLESTON     MOCLDY    83  66  56 W3        30.03R
PINEVILLE*     PTCLDY    74  71  89 MISG      30.12R
BECKLEY        CLEAR     80  62  54 N7        30.11R
BLUEFIELD      CLEAR     81  59  47 VRB6      30.13S
$$

VAZ002-007-008-TNZ017-027-036-066-071-030000
...SOUTHWEST VIRGINIA/EAST TENNESSEE...

CITY           SKY/WX    TMP DP  RH WIND       PRES   REMARKS
WISE*          SUNNY     81  59  47 NW5       30.14S
JONESVILLE*    CLEAR     84  64  51 CALM      30.07S
ABINGDON*      SUNNY     83  61  47 CALM      30.08S
BRISTOL        PTSUNNY   84  65  52 CALM      30.04S
KNOXVILLE      PTSUNNY   88  65  46 N6        30.01S HX  90
OAK RIDGE      MOSUNNY   87  70  56 CALM      30.04S HX  92
CROSSVILLE     CLOUDY    79  67  66 NW5       30.10S
NASHVILLE      PTSUNNY   88  64  44 E6        30.02S
$$

...KEY TO REMARKS...
VSB - VISIBILITY IN MILES
WCI - WIND CHILL INDEX
HX  - HEAT INDEX

$$


USA.gov is the U.S. government's official web portal to all federal, state and local government web resources and services.